Hourly Data Report for October 18, 2013

All times are specified in Local Standard Time (LST). Add 1 hour to adjust for Daylight Saving Time where and when it is observed.

IQALUIT CLIMATE
NUNAVUT

63°44'50.000" N
68°32'40.000" W
33.50 m
2402592
71321
XFB

Download Data

Hourly Data (October 2013)
Hourly Data Report for October 18, 2013
Temp Definition
°C
Dew Point Temp Definition
°C
Rel Hum Definition
%
Wind Dir Definition
10's deg

Wind Spd Definition
km/h
Visibility Definition
km
Stn Press Definition
kPa
Hmdx Definition


Wind Chill Definition


Weather Definition


TIME
00:00 0.4 -0.2 96 14 30   100.86     LegendNANA
01:00 0.4 0.0 97 13 30   100.86     LegendNANA
02:00 0.2 -0.2 97 15 32   100.85     LegendNANA
03:00 0.3 -0.1 97 14 28   100.85     LegendNANA
04:00 0.4 0.1 98 14 30   100.85     LegendNANA
05:00 0.5 0.3 99 14 35   100.84     LegendNANA
06:00 0.6 0.1 96 13 35   100.87     LegendNANA
07:00 0.9 0.4 96 13 33   100.91     LegendNANA
08:00 0.9 0.6 98 14 39   100.93     LegendNANA
09:00 1.1 0.7 97 14 37   100.97     LegendNANA
10:00 1.3 1.0 98 13 32   100.99     LegendNANA
11:00 1.3 0.9 97 14 24   101.01     LegendNANA
12:00 1.3 0.9 97 13 26   101.04     LegendNANA
13:00 1.5 1.0 96 14 19   101.07     LegendNANA
14:00 1.4 1.1 98 15 20   101.11     LegendNANA
15:00 1.1 1.1 100 15 22   101.13     LegendNANA
16:00 1.3 1.2 99 15 17   101.16     LegendNANA
17:00 1.1 1.1 100 13 17   101.18     LegendNANA
18:00 1.5 1.5 100 14 15   101.21     LegendNANA
19:00 1.4 1.4 100 13 11   101.23     LegendNANA
20:00 1.5 1.5 100 13 17   101.24     LegendNANA
21:00 1.4 1.4 100 15 15   101.23     LegendNANA
22:00 1.4 1.4 100 15 11   101.23     LegendNANA
23:00 1.2 1.2 100 14 4   101.23     LegendNANA

Notes on Data Quality.

Legend

  • E = Estimated
  • M = Missing
  • NA = Not Available
  • ‡ = Partner data that is not subject to review by the National Climate Archives
Date modified: